When you browse on this site, cookies collect data to enhance your experience and personalize the content and advertising you see.
Visit our Privacy Policy to learn more. By continuing to use the site, you agree to this use of cookies and data.

Météo par heure à Gorodechno

Ce jour, 6 Juillet, Lundi

Heure Température Précipitation Vent Pression Humidité
00:00 +19°C° 0 mm 3 m/s 737 mmHg 94%
01:00 +19°C° 0 mm 3 m/s 737 mmHg 94%
02:00 +19°C° 0 mm 4 m/s 737 mmHg 95%
03:00 +19°C° 0.1 mm 4 m/s 736 mmHg 95%
04:00 +19°C° 0.1 mm 4 m/s 736 mmHg 95%
05:00 +19°C° 0.1 mm 4 m/s 736 mmHg 96%
06:00 +19°C° 0 mm 4 m/s 736 mmHg 94%
07:00 +20°C° 0 mm 4 m/s 736 mmHg 92%
08:00 +21°C° 0 mm 4 m/s 736 mmHg 91%
09:00 +22°C° 0.5 mm 4 m/s 735 mmHg 87%
10:00 +25°C° 0.5 mm 5 m/s 735 mmHg 83%
11:00 +26°C° 0.5 mm 5 m/s 735 mmHg 79%
12:00 +26°C° 0.9 mm 5 m/s 735 mmHg 79%
13:00 +26°C° 0.9 mm 5 m/s 735 mmHg 78%
14:00 +26°C° 0.9 mm 4 m/s 734 mmHg 78%
15:00 +26°C° 1.3 mm 4 m/s 734 mmHg 80%
16:00 +26°C° 1.3 mm 3 m/s 734 mmHg 82%
17:00 +25°C° 1.3 mm 3 m/s 734 mmHg 85%
18:00 +24°C° 0.4 mm 3 m/s 734 mmHg 86%
19:00 +22°C° 0.4 mm 3 m/s 734 mmHg 88%
20:00 +21°C° 0.4 mm 2 m/s 734 mmHg 90%
21:00 +20°C° 0 mm 3 m/s 734 mmHg 90%
22:00 +19°C° 0 mm 3 m/s 734 mmHg 91%
23:00 +18°C° 0 mm 4 m/s 735 mmHg 91%

Demain, 7 Juillet, Mardi

Heure Température Précipitation Vent Pression Humidité
00:00 +17°C° 0.2 mm 3 m/s 735 mmHg 93%
01:00 +16°C° 0.2 mm 3 m/s 735 mmHg 94%
02:00 +14°C° 0.2 mm 3 m/s 735 mmHg 96%
03:00 +14°C° 0 mm 3 m/s 735 mmHg 95%
04:00 +14°C° 0 mm 2 m/s 736 mmHg 94%
05:00 +14°C° 0 mm 2 m/s 736 mmHg 92%
06:00 +13°C° 0.1 mm 3 m/s 736 mmHg 91%
07:00 +13°C° 0.1 mm 3 m/s 737 mmHg 89%
08:00 +13°C° 0.1 mm 4 m/s 737 mmHg 87%
09:00 +14°C° 0.1 mm 3 m/s 737 mmHg 83%
10:00 +16°C° 0.1 mm 3 m/s 737 mmHg 79%
11:00 +17°C° 0.1 mm 3 m/s 738 mmHg 75%
12:00 +17°C° 0.4 mm 3 m/s 738 mmHg 76%
13:00 +17°C° 0.4 mm 3 m/s 738 mmHg 76%
14:00 +17°C° 0.4 mm 3 m/s 738 mmHg 77%
15:00 +17°C° 0.3 mm 3 m/s 738 mmHg 77%
16:00 +17°C° 0.3 mm 4 m/s 738 mmHg 78%
17:00 +17°C° 0.3 mm 4 m/s 738 mmHg 78%
18:00 +15°C° 0.1 mm 4 m/s 738 mmHg 80%
19:00 +14°C° 0.1 mm 4 m/s 738 mmHg 82%
20:00 +13°C° 0.1 mm 3 m/s 738 mmHg 84%
21:00 +12°C° 0 mm 3 m/s 738 mmHg 86%
22:00 +11°C° 0 mm 3 m/s 739 mmHg 87%
23:00 +10°C° 0 mm 2 m/s 739 mmHg 89%

Après-demain, 8 Juillet, Mercredi

Heure Température Précipitation Vent Pression Humidité
00:00 +9°C° 0 mm 2 m/s 739 mmHg 91%
01:00 +9°C° 0 mm 3 m/s 739 mmHg 93%
02:00 +8°C° 0 mm 3 m/s 739 mmHg 95%
03:00 +8°C° 0 mm 3 m/s 739 mmHg 95%
04:00 +8°C° 0 mm 3 m/s 739 mmHg 95%
05:00 +8°C° 0 mm 3 m/s 739 mmHg 95%
06:00 +10°C° 0 mm 3 m/s 739 mmHg 89%
07:00 +12°C° 0 mm 3 m/s 739 mmHg 83%
08:00 +13°C° 0 mm 3 m/s 740 mmHg 77%
09:00 +15°C° 0 mm 4 m/s 740 mmHg 73%
10:00 +17°C° 0 mm 4 m/s 740 mmHg 68%
11:00 +17°C° 0 mm 5 m/s 740 mmHg 64%
12:00 +17°C° 0.1 mm 5 m/s 740 mmHg 63%
13:00 +19°C° 0.1 mm 5 m/s 740 mmHg 62%
14:00 +19°C° 0.1 mm 5 m/s 739 mmHg 62%
15:00 +17°C° 0.2 mm 5 m/s 739 mmHg 67%
16:00 +17°C° 0.2 mm 4 m/s 739 mmHg 72%
17:00 +17°C° 0.2 mm 4 m/s 739 mmHg 78%
18:00 +14°C° 0.6 mm 4 m/s 739 mmHg 84%
19:00 +13°C° 0.6 mm 3 m/s 739 mmHg 90%
20:00 +11°C° 0.6 mm 3 m/s 739 mmHg 96%
21:00 +11°C° 0.1 mm 3 m/s 740 mmHg 96%
22:00 +11°C° 0.1 mm 3 m/s 740 mmHg 96%
23:00 +11°C° 0.1 mm 3 m/s 740 mmHg 97%

9 Juillet, Jeudi

Heure Température Précipitation Vent Pression Humidité
00:00 +11°C° 0.1 mm 3 m/s 740 mmHg 97%
01:00 +10°C° 0.1 mm 3 m/s 740 mmHg 97%
02:00 +10°C° 0.1 mm 3 m/s 741 mmHg 97%
03:00 +10°C° 0 mm 3 m/s 741 mmHg 97%
04:00 +10°C° 0 mm 3 m/s 741 mmHg 97%
05:00 +10°C° 0 mm 3 m/s 741 mmHg 97%
06:00 +11°C° 0 mm 3 m/s 742 mmHg 93%
07:00 +13°C° 0 mm 2 m/s 742 mmHg 90%
08:00 +14°C° 0 mm 2 m/s 742 mmHg 86%
09:00 +14°C° 0.1 mm 3 m/s 742 mmHg 81%
10:00 +16°C° 0.1 mm 3 m/s 743 mmHg 75%
11:00 +17°C° 0.1 mm 3 m/s 743 mmHg 70%
12:00 +18°C° 0.2 mm 4 m/s 743 mmHg 67%
13:00 +18°C° 0.2 mm 4 m/s 743 mmHg 64%
14:00 +19°C° 0.2 mm 4 m/s 743 mmHg 61%
15:00 +19°C° 0 mm 4 m/s 743 mmHg 62%
16:00 +19°C° 0 mm 4 m/s 743 mmHg 63%
17:00 +19°C° 0 mm 4 m/s 743 mmHg 63%
18:00 +18°C° 0 mm 3 m/s 743 mmHg 70%
19:00 +16°C° 0 mm 2 m/s 743 mmHg 76%
20:00 +15°C° 0 mm 2 m/s 743 mmHg 83%
21:00 +14°C° 0 mm 2 m/s 743 mmHg 85%
22:00 +13°C° 0 mm 2 m/s 744 mmHg 88%
23:00 +12°C° 0 mm 1 m/s 744 mmHg 90%

10 Juillet, Vendredi

Heure Température Précipitation Vent Pression Humidité
00:00 +11°C° 0 mm 1 m/s 744 mmHg 90%
01:00 +11°C° 0 mm 1 m/s 744 mmHg 90%
02:00 +11°C° 0 mm 1 m/s 744 mmHg 90%
03:00 +11°C° 0 mm 1 m/s 744 mmHg 90%
04:00 +11°C° 0 mm 1 m/s 744 mmHg 90%
05:00 +11°C° 0 mm 1 m/s 744 mmHg 90%
06:00 +13°C° 0 mm 1 m/s 744 mmHg 85%
07:00 +15°C° 0 mm 2 m/s 744 mmHg 80%
08:00 +17°C° 0 mm 2 m/s 744 mmHg 76%
09:00 +18°C° 0 mm 3 m/s 743 mmHg 71%
10:00 +19°C° 0 mm 3 m/s 743 mmHg 67%
11:00 +20°C° 0 mm 4 m/s 743 mmHg 63%
12:00 +21°C° 0 mm 4 m/s 743 mmHg 62%
13:00 +21°C° 0 mm 4 m/s 742 mmHg 61%
14:00 +22°C° 0 mm 5 m/s 742 mmHg 60%
15:00 +22°C° 0 mm 5 m/s 741 mmHg 64%
16:00 +22°C° 0 mm 4 m/s 740 mmHg 67%
17:00 +22°C° 0 mm 4 m/s 740 mmHg 70%
18:00 +21°C° 0.1 mm 5 m/s 739 mmHg 74%
19:00 +20°C° 0.1 mm 5 m/s 739 mmHg 78%
20:00 +19°C° 0.1 mm 5 m/s 738 mmHg 82%
21:00 +19°C° 1.6 mm 5 m/s 738 mmHg 87%
22:00 +19°C° 1.6 mm 5 m/s 738 mmHg 91%
23:00 +17°C° 1.6 mm 5 m/s 737 mmHg 95%

11 Juillet, Samedi

Heure Température Précipitation Vent Pression Humidité
00:00 +17°C° 1.3 mm 5 m/s 737 mmHg 96%
01:00 +17°C° 1.3 mm 5 m/s 738 mmHg 96%
02:00 +17°C° 1.3 mm 4 m/s 738 mmHg 96%
03:00 +15°C° 0 mm 4 m/s 738 mmHg 95%
04:00 +13°C° 0 mm 4 m/s 739 mmHg 94%
05:00 +12°C° 0 mm 3 m/s 739 mmHg 93%
06:00 +12°C° 0 mm 4 m/s 740 mmHg 87%
07:00 +13°C° 0 mm 5 m/s 740 mmHg 80%
08:00 +14°C° 0 mm 6 m/s 740 mmHg 74%
09:00 +15°C° 0 mm 7 m/s 740 mmHg 70%
10:00 +15°C° 0 mm 7 m/s 741 mmHg 66%
11:00 +16°C° 0 mm 7 m/s 741 mmHg 63%
12:00 +16°C° 0 mm 7 m/s 741 mmHg 64%
13:00 +16°C° 0 mm 7 m/s 741 mmHg 65%
14:00 +16°C° 0 mm 7 m/s 741 mmHg 66%
15:00 +16°C° 0 mm 7 m/s 741 mmHg 66%
16:00 +16°C° 0 mm 7 m/s 741 mmHg 67%
17:00 +16°C° 0 mm 7 m/s 741 mmHg 68%
18:00 +15°C° 0 mm 6 m/s 741 mmHg 71%
19:00 +14°C° 0 mm 6 m/s 741 mmHg 73%
20:00 +13°C° 0 mm 5 m/s 741 mmHg 76%
21:00 +12°C° 0 mm 5 m/s 741 mmHg 75%
22:00 +10°C° 0 mm 5 m/s 741 mmHg 74%
23:00 +9°C° 0 mm 5 m/s 741 mmHg 73%
Voir plus